Overview Statistics Trail Chart Weather Telemetry Raw packets
 

This is the latest recevied weather packets stored in our database for station/object KG5APU. If no packets are shown the sender has not sent any weather packets the latest 10 day(s).

<< 1 2 3 4 >>
Time Temp. Humidity Pressure Rain* Wind** Luminosity Snow
1788641015 37.78° C 42% 1012.6 hPa 0 mm - 610 W/m² -
1788640409 37.22° C 45% 1012.7 hPa 0 mm - 628 W/m² -
1788639805 37.78° C 44% 1012.6 hPa 0 mm - 674 W/m² -
1788639202 37.22° C 45% 1012.9 hPa 0 mm - 686 W/m² -
1788638598 36.11° C 45% 1012.9 hPa 0 mm - 694 W/m² -
1788637997 35.56° C 46% 1013.2 hPa 0 mm - 704 W/m² -
1788637392 36.11° C 46% 1013.1 hPa 0 mm - 714 W/m² -
1788636793 36.67° C 46% 1013.4 hPa 0 mm - 722 W/m² -
1788636190 36.11° C 47% 1013.7 hPa 0 mm - 738 W/m² -
1788635588 35° C 49% 1013.9 hPa 0 mm - 748 W/m² -
1788634986 35.56° C 48% 1013.9 hPa 0 mm - 759 W/m² -
1788634387 35.56° C 49% 1014 hPa 0 mm - 766 W/m² -
1788633785 36.11° C 49% 1014.2 hPa 0 mm - 765 W/m² -
1788633180 36.11° C 48% 1014.4 hPa 0 mm - 771 W/m² -
1788632579 35.56° C 49% 1014.4 hPa 0 mm - 775 W/m² -
1788631974 35° C 48% 1014.7 hPa 0 mm - 773 W/m² -
1788631369 35.56° C 49% 1014.9 hPa 0 mm - 773 W/m² -
1788630765 36.11° C 47% 1014.8 hPa 0 mm - 768 W/m² -
1788630161 35° C 51% 1014.9 hPa 0 mm - 762 W/m² -
1788629560 34.44° C 52% 1015.3 hPa 0 mm - 749 W/m² -
1788628958 35° C 49% 1015.5 hPa 0 mm - 736 W/m² -
1788628355 35° C 51% 1015.5 hPa 0 mm - 717 W/m² -
1788627753 35° C 54% 1015.4 hPa 0 mm - 711 W/m² -
1788627154 34.44° C 53% 1015.5 hPa 0 mm - 694 W/m² -
1788626554 35° C 52% 1015.6 hPa 0 mm - 672 W/m² -

* Rain latest hour (hover to see other rain measurements)
** Current wind speed in m/s (hover to see current wind gust speed)